map of WPU home
Great Circle Mapper logo
WPU - Airport
Location
City:  Puerto Williams, Magallanes y de la Antártica Chilena, Chile
Name:Guardiamarina Zañartu Airport
ICAO:SCGZ
IATA:WPU

Details
Type:Airport (Aerodrome, Airfield)
Use:Public/Civil
Latitude:54°55'52"S (-54.931110)
Longitude:67°37'34"W (-67.626110)
Elevation:88 ft (27 m)
Variation:12.08°E (WMM2015 magnetic declination)
-0.07° annual change
Runways:1
Longest:4724 × 95 ft (1440 × 29 m), paved

Time
Time Zone:UTC-4 (DST-3)
Local Time:

Weather
METAR:SCGZ 271900Z 26016KT 9999 FEW043 SCT076 BKN100 08/02 Q1008

Related Locations
Nearby:
Farthest:UIUR: 12387 mi / 19935 km
Varvarinsk [Varvarinsk Airport], BU, RU

Find:

   beyond  
but within

Other Information
Maps:
NOTAMs:
Links:
Sources:

  
flag of Chile
flag of Magallanes y de la Antártica Chilena
  

Sectional Chart

Flight Planning
at skyvector.com

Satellite Image

Google Maps Satellite view

 

Copyright © 2004-2016 Karl L. Swartz. All rights reserved.
The Great Circle Mapper name and logo are trademarks of the Great Circle Mapper.
All other trademarks mentioned herein belong to their respective owners.
Please see credits for attibutions and further copyright information.

  Follow gcmap on Facebook Follow gcmap on Twitter Follow gcmap on Google+ GCmap on LinkedIn

hCard Microformat

Geo Microformat